Location: *
(32.8140°S, 174.6161°E)
Time: 07:54:41
(UTC+00:00)

Cosmos 1782 - Pass Details

Date: 10 December 2019
Orbit: 538 x 551 km, 82.5° (Epoch: 24 January)

Event Time Altitude Azimuth Distance (km) Brightness Sun altitude
Rises 16:21:56 0° 3° (N) 2,691 6.0 -8.8°
Reaches altitude 10° 16:24:05 10° 6° (N) 1,809 5.2 -8.5°
Maximum altitude 16:28:00 61° 86° (E) 629 3.4 -7.8°
Drops below altitude 10° 16:32:01 10° 166° (SSE) 1,845 6.3 -7.1°
Sets 16:34:13 0° 169° (S) 2,750 7.1 -6.7°
